Time,TemperatureF,DewpointF,PressureIn,WindDirection,WindDirectionDegrees,WindSpeedMPH,WindSpeedGustMPH,Humidity,HourlyPrecipIn,Conditions,Clouds,dailyrainin,SoftwareType,DateUTC
2013-06-23 00:00:00,56.7,26.4,29.72,NE,45,0.0,0.0,31,0.00,,SKC,0.00,VWS V12.07,2013-06-23 06:00:00,
2013-06-23 01:00:00,58.3,20.7,29.69,NE,45,0.0,0.0,23,0.00,,SKC,0.00,VWS V12.07,2013-06-23 07:00:00,
2013-06-23 02:00:00,56.3,21.9,29.69,SE,135,0.0,1.0,26,0.00,,SKC,0.00,VWS V12.07,2013-06-23 08:00:00,
2013-06-23 03:00:00,54.7,23.9,29.67,SE,135,0.0,0.0,30,0.00,,SKC,0.00,VWS V12.07,2013-06-23 09:00:00,
2013-06-23 04:00:00,53.1,26.2,29.67,SE,135,0.0,0.0,35,0.00,,SKC,0.00,VWS V12.07,2013-06-23 10:00:00,
2013-06-23 05:00:00,53.9,24.0,29.67,SE,135,0.0,0.0,31,0.00,,SKC,0.00,VWS V12.07,2013-06-23 11:00:00,
2013-06-23 06:00:00,53.3,21.9,29.67,SE,135,0.0,0.0,29,0.00,,SKC,0.00,VWS V12.07,2013-06-23 12:00:00,
2013-06-23 07:00:00,50.2,30.8,29.70,SE,135,0.0,0.0,47,0.00,,SKC,0.00,VWS V12.07,2013-06-23 13:00:00,
2013-06-23 08:00:00,61.5,32.9,29.64,SE,135,0.0,0.0,34,0.00,,SKC,0.00,VWS V12.07,2013-06-23 14:00:00,
2013-06-23 09:00:00,63.7,37.0,29.67,East,90,0.0,1.0,37,0.00,,SKC,0.00,VWS V12.07,2013-06-23 15:00:00,
2013-06-23 10:00:00,67.1,33.8,29.66,East,90,0.0,1.0,29,0.00,,SKC,0.00,VWS V12.07,2013-06-23 16:00:00,
2013-06-23 11:00:00,71.1,36.4,29.62,East,90,0.0,1.0,28,0.00,,SKC,0.00,VWS V12.07,2013-06-23 17:00:00,
2013-06-23 12:00:00,75.1,36.9,29.57,ENE,68,0.0,4.0,25,0.00,,SKC,0.00,VWS V12.07,2013-06-23 18:00:00,
2013-06-23 13:00:00,79.2,35.9,29.53,NE,45,0.0,6.0,21,0.00,,SKC,0.00,VWS V12.07,2013-06-23 19:00:00,
2013-06-23 14:00:00,78.5,36.5,29.51,ESE,112,0.0,6.0,22,0.00,,SKC,0.00,VWS V12.07,2013-06-23 20:00:00,
2013-06-23 15:00:00,80.3,34.3,29.48,ESE,112,1.0,6.0,19,0.00,,SKC,0.00,VWS V12.07,2013-06-23 21:00:00,
2013-06-23 16:00:00,79.6,38.6,29.48,NE,45,0.0,2.0,23,0.00,,SKC,0.00,VWS V12.07,2013-06-23 22:00:00,
2013-06-23 17:00:00,79.2,33.4,29.46,NE,45,0.0,0.0,19,0.00,,SKC,0.00,VWS V12.07,2013-06-23 23:00:00,
2013-06-23 18:00:00,77.0,41.4,29.44,NE,45,0.0,0.0,28,0.00,,SKC,0.00,VWS V12.07,2013-06-24 00:00:00,
2013-06-23 19:00:00,78.8,40.0,29.45,NE,45,0.0,0.0,25,0.00,,SKC,0.00,VWS V12.07,2013-06-24 01:00:00,
2013-06-23 20:00:00,72.7,41.2,29.41,NE,45,0.0,0.0,32,0.00,,SKC,0.00,VWS V12.07,2013-06-24 02:00:00,
2013-06-23 21:00:00,74.2,22.0,29.38,SW,225,0.0,6.0,14,0.00,,SKC,0.00,VWS V12.07,2013-06-24 03:00:00,
2013-06-23 22:00:00,76.0,23.4,29.38,SW,225,1.0,13.0,14,0.00,,SKC,0.00,VWS V12.07,2013-06-24 04:00:00,
2013-06-23 23:00:00,75.1,22.7,29.36,SW,225,0.0,9.0,14,0.00,,SKC,0.00,VWS V12.07,2013-06-24 05:00:00,